Time,TemperatureF,DewpointF,PressureIn,WindDirection,WindDirectionDegrees,WindSpeedMPH,WindSpeedGustMPH,Humidity,HourlyPrecipIn,Conditions,Clouds,dailyrainin,SoftwareType,DateUTC
2013-06-29 00:00:00,64.6,62.8,29.17,South,175,2.0,2.0,94,0.00,,,0.74,Wunderground v.1.15,2013-06-29 04:00:00,
2013-06-29 00:04:00,64.6,62.8,29.17,SSW,194,1.0,2.0,94,0.00,,,0.00,Wunderground v.1.15,2013-06-29 04:04:00,
2013-06-29 00:10:00,64.6,62.8,29.17,SSW,194,1.0,1.0,94,0.00,,,0.00,Wunderground v.1.15,2013-06-29 04:10:00,
2013-06-29 00:15:00,64.5,62.7,29.17,SSW,196,0.0,2.0,94,0.00,,,0.00,Wunderground v.1.15,2013-06-29 04:15:00,
2013-06-29 00:20:00,64.5,62.7,29.17,SSW,196,1.0,1.0,94,0.00,,,0.00,Wunderground v.1.15,2013-06-29 04:20:00,
2013-06-29 00:30:00,64.5,62.7,29.17,SSW,196,0.0,1.0,94,0.00,,,0.00,Wunderground v.1.15,2013-06-29 04:30:00,
2013-06-29 00:35:00,64.4,62.6,29.17,SSW,196,0.0,1.0,94,0.00,,,0.00,Wunderground v.1.15,2013-06-29 04:35:00,
2013-06-29 00:40:00,64.4,62.6,29.17,SSE,167,1.0,1.0,94,0.00,,,0.00,Wunderground v.1.15,2013-06-29 04:40:00,
2013-06-29 00:50:00,64.4,62.6,29.17,SSE,167,0.0,0.0,94,0.00,,,0.00,Wunderground v.1.15,2013-06-29 04:50:00,
2013-06-29 01:00:00,64.4,62.6,29.17,SSE,167,0.0,0.0,94,0.00,,,0.00,Wunderground v.1.15,2013-06-29 05:00:00,
2013-06-29 01:10:00,64.3,62.8,29.17,SSE,167,0.0,0.0,95,0.00,,,0.00,Wunderground v.1.15,2013-06-29 05:10:00,
2013-06-29 01:20:00,64.2,62.7,29.17,SSE,167,0.0,0.0,95,0.00,,,0.00,Wunderground v.1.15,2013-06-29 05:20:00,
2013-06-29 01:30:00,64.1,62.6,29.17,SSE,167,0.0,0.0,95,0.00,,,0.00,Wunderground v.1.15,2013-06-29 05:30:00,
2013-06-29 01:40:00,64.1,62.6,29.17,SSE,167,0.0,0.0,95,0.00,,,0.00,Wunderground v.1.15,2013-06-29 05:40:00,
2013-06-29 01:50:00,64.1,62.6,29.17,SSE,167,0.0,0.0,95,0.00,,,0.00,Wunderground v.1.15,2013-06-29 05:50:00,
2013-06-29 02:00:00,64.0,62.5,29.17,SSE,167,0.0,0.0,95,0.14,,,0.02,Wunderground v.1.15,2013-06-29 06:00:00,
2013-06-29 02:05:00,64.0,62.5,29.17,SSE,167,0.0,0.0,95,0.16,,,0.04,Wunderground v.1.15,2013-06-29 06:05:00,
2013-06-29 02:10:00,64.0,62.5,29.17,SSE,167,0.0,0.0,95,0.20,,,0.06,Wunderground v.1.15,2013-06-29 06:10:00,
2013-06-29 02:15:00,64.0,62.8,29.16,SSE,167,0.0,0.0,96,0.19,,,0.07,Wunderground v.1.15,2013-06-29 06:15:00,
2013-06-29 02:20:00,63.9,62.7,29.16,SSE,152,0.0,0.0,96,0.08,,,0.07,Wunderground v.1.15,2013-06-29 06:20:00,
2013-06-29 02:25:00,63.8,62.6,29.16,SE,143,0.0,0.0,96,0.08,,,0.08,Wunderground v.1.15,2013-06-29 06:25:00,
2013-06-29 02:30:00,63.8,62.6,29.16,SSW,207,0.0,0.0,96,0.09,,,0.09,Wunderground v.1.15,2013-06-29 06:30:00,
2013-06-29 02:35:00,63.7,62.5,29.16,SSW,208,0.0,0.0,96,0.08,,,0.09,Wunderground v.1.15,2013-06-29 06:35:00,
2013-06-29 02:45:00,63.6,62.4,29.16,SSW,208,0.0,0.0,96,0.00,,,0.09,Wunderground v.1.15,2013-06-29 06:45:00,
2013-06-29 02:55:00,63.6,62.4,29.16,SSW,208,0.0,0.0,96,0.00,,,0.09,Wunderground v.1.15,2013-06-29 06:55:00,
2013-06-29 03:05:00,63.6,62.4,29.16,SSW,208,0.0,0.0,96,0.00,,,0.09,Wunderground v.1.15,2013-06-29 07:05:00,
2013-06-29 03:10:00,63.5,62.3,29.16,SSW,208,0.0,0.0,96,0.00,,,0.09,Wunderground v.1.15,2013-06-29 07:10:00,
2013-06-29 03:20:00,63.4,62.5,29.16,SE,146,0.0,0.0,97,0.00,,,0.09,Wunderground v.1.15,2013-06-29 07:20:00,
2013-06-29 03:25:00,63.4,62.5,29.16,SE,146,0.0,0.0,97,0.00,,,0.09,Wunderground v.1.15,2013-06-29 07:25:00,
2013-06-29 03:30:00,63.3,62.4,29.16,SE,146,0.0,0.0,97,0.00,,,0.09,Wunderground v.1.15,2013-06-29 07:30:00,
2013-06-29 03:40:00,63.3,62.4,29.17,SE,146,0.0,0.0,97,0.00,,,0.09,Wunderground v.1.15,2013-06-29 07:40:00,
2013-06-29 03:50:00,63.3,62.4,29.17,SE,146,0.0,0.0,97,0.00,,,0.09,Wunderground v.1.15,2013-06-29 07:50:00,
2013-06-29 04:00:00,63.4,62.5,29.17,SE,146,0.0,0.0,97,0.00,,,0.09,Wunderground v.1.15,2013-06-29 08:00:00,
2013-06-29 04:10:00,63.4,62.5,29.17,SE,146,0.0,0.0,97,0.00,,,0.09,Wunderground v.1.15,2013-06-29 08:10:00,
2013-06-29 04:15:00,63.4,62.5,29.17,SE,146,0.0,0.0,97,0.00,,,0.09,Wunderground v.1.15,2013-06-29 08:15:00,
2013-06-29 04:20:00,63.4,62.5,29.17,SE,146,0.0,0.0,97,0.00,,,0.09,Wunderground v.1.15,2013-06-29 08:20:00,
2013-06-29 04:30:00,63.4,62.5,29.16,SE,146,0.0,0.0,97,0.00,,,0.09,Wunderground v.1.15,2013-06-29 08:30:00,
2013-06-29 04:40:00,63.4,62.5,29.16,SE,146,0.0,0.0,97,0.00,,,0.09,Wunderground v.1.15,2013-06-29 08:40:00,
2013-06-29 04:50:00,63.5,62.6,29.17,SW,219,0.0,0.0,97,0.00,,,0.09,Wunderground v.1.15,2013-06-29 08:50:00,
2013-06-29 04:55:00,63.5,62.6,29.17,SW,219,0.0,0.0,97,0.00,,,0.09,Wunderground v.1.15,2013-06-29 08:55:00,
2013-06-29 05:05:00,63.5,62.6,29.17,SW,219,0.0,0.0,97,0.00,,,0.09,Wunderground v.1.15,2013-06-29 09:05:00,
2013-06-29 05:10:00,63.5,62.6,29.17,SW,219,0.0,0.0,97,0.00,,,0.09,Wunderground v.1.15,2013-06-29 09:10:00,
2013-06-29 05:15:00,63.4,62.5,29.18,SW,219,0.0,0.0,97,0.00,,,0.09,Wunderground v.1.15,2013-06-29 09:15:00,
2013-06-29 05:20:00,63.4,62.5,29.18,SW,219,0.0,0.0,97,0.00,,,0.09,Wunderground v.1.15,2013-06-29 09:20:00,
2013-06-29 05:25:00,63.4,62.5,29.18,SW,219,0.0,0.0,97,0.00,,,0.09,Wunderground v.1.15,2013-06-29 09:25:00,
2013-06-29 05:30:00,63.4,62.5,29.18,SW,219,0.0,0.0,97,0.00,,,0.09,Wunderground v.1.15,2013-06-29 09:30:00,
2013-06-29 05:40:00,63.5,62.6,29.19,SW,219,0.0,0.0,97,0.00,,,0.09,Wunderground v.1.15,2013-06-29 09:40:00,
2013-06-29 05:45:00,63.5,62.6,29.19,SW,219,0.0,0.0,97,0.00,,,0.09,Wunderground v.1.15,2013-06-29 09:45:00,
2013-06-29 05:50:00,63.6,62.7,29.19,SW,219,0.0,0.0,97,0.00,,,0.09,Wunderground v.1.15,2013-06-29 09:50:00,
2013-06-29 06:00:00,63.6,62.7,29.19,SW,219,0.0,0.0,97,0.00,,,0.09,Wunderground v.1.15,2013-06-29 10:00:00,
2013-06-29 06:05:00,63.7,62.8,29.20,SW,219,0.0,0.0,97,0.00,,,0.09,Wunderground v.1.15,2013-06-29 10:05:00,
2013-06-29 06:15:00,63.8,62.9,29.20,SW,219,0.0,0.0,97,0.00,,,0.09,Wunderground v.1.15,2013-06-29 10:15:00,
2013-06-29 06:25:00,63.8,62.9,29.21,SW,219,0.0,0.0,97,0.00,,,0.09,Wunderground v.1.15,2013-06-29 10:25:00,
2013-06-29 06:35:00,63.9,63.3,29.20,SW,219,0.0,0.0,98,0.00,,,0.09,Wunderground v.1.15,2013-06-29 10:35:00,
2013-06-29 06:40:00,64.0,63.4,29.20,SW,219,0.0,0.0,98,0.00,,,0.09,Wunderground v.1.15,2013-06-29 10:40:00,
2013-06-29 06:50:00,64.2,63.6,29.20,SW,218,0.0,0.0,98,0.00,,,0.09,Wunderground v.1.15,2013-06-29 10:50:00,
2013-06-29 06:55:00,64.2,63.6,29.20,SW,218,0.0,0.0,98,0.00,,,0.09,Wunderground v.1.15,2013-06-29 10:55:00,
2013-06-29 07:00:00,64.3,63.4,29.20,SW,218,0.0,0.0,97,0.00,,,0.09,Wunderground v.1.15,2013-06-29 11:00:00,
2013-06-29 07:10:00,64.3,63.4,29.20,SW,218,0.0,0.0,97,0.00,,,0.09,Wunderground v.1.15,2013-06-29 11:10:00,
2013-06-29 07:15:00,64.4,63.8,29.20,SW,218,0.0,0.0,98,0.00,,,0.09,Wunderground v.1.15,2013-06-29 11:15:00,
2013-06-29 07:25:00,64.7,64.1,29.20,SW,218,0.0,0.0,98,0.00,,,0.09,Wunderground v.1.15,2013-06-29 11:25:00,
2013-06-29 07:35:00,65.0,64.4,29.21,SW,218,0.0,0.0,98,0.00,,,0.09,Wunderground v.1.15,2013-06-29 11:35:00,
2013-06-29 07:40:00,65.0,64.4,29.20,SW,218,0.0,0.0,98,0.00,,,0.09,Wunderground v.1.15,2013-06-29 11:40:00,
2013-06-29 07:50:00,65.2,64.3,29.21,SW,218,1.0,1.0,97,0.00,,,0.09,Wunderground v.1.15,2013-06-29 11:50:00,
2013-06-29 08:00:00,65.9,65.3,29.21,SW,218,0.0,0.0,98,0.00,,,0.09,Wunderground v.1.15,2013-06-29 12:00:00,
2013-06-29 08:10:00,67.2,66.6,29.21,SE,136,0.0,2.0,98,0.00,,,0.09,Wunderground v.1.15,2013-06-29 12:10:00,
2013-06-29 08:15:00,67.4,66.8,29.21,South,187,1.0,2.0,98,0.00,,,0.09,Wunderground v.1.15,2013-06-29 12:15:00,
2013-06-29 08:20:00,67.8,67.2,29.21,South,188,1.0,1.0,98,0.00,,,0.09,Wunderground v.1.15,2013-06-29 12:20:00,
2013-06-29 08:30:00,68.4,67.5,29.21,East,90,0.0,1.0,97,0.00,,,0.09,Wunderground v.1.15,2013-06-29 12:30:00,
2013-06-29 08:35:00,68.3,67.1,29.21,SSE,155,1.0,1.0,96,0.00,,,0.09,Wunderground v.1.15,2013-06-29 12:35:00,
2013-06-29 08:40:00,68.8,67.3,29.21,SSE,153,1.0,1.0,95,0.00,,,0.09,Wunderground v.1.15,2013-06-29 12:40:00,
2013-06-29 08:50:00,69.4,67.3,29.22,SE,144,1.0,1.0,93,0.00,,,0.09,Wunderground v.1.15,2013-06-29 12:50:00,
2013-06-29 08:55:00,69.8,67.4,29.21,South,189,1.0,1.0,92,0.00,,,0.09,Wunderground v.1.15,2013-06-29 12:55:00,
2013-06-29 09:00:00,70.1,67.7,29.21,ESE,104,1.0,2.0,92,0.00,,,0.09,Wunderground v.1.15,2013-06-29 13:00:00,
2013-06-29 09:10:00,70.2,67.4,29.21,South,180,1.0,1.0,91,0.00,,,0.09,Wunderground v.1.15,2013-06-29 13:10:00,
2013-06-29 09:20:00,70.7,67.9,29.21,South,180,1.0,1.0,91,0.00,,,0.09,Wunderground v.1.15,2013-06-29 13:20:00,
2013-06-29 09:25:00,70.9,68.1,29.20,SE,142,1.0,1.0,91,0.00,,,0.09,Wunderground v.1.15,2013-06-29 13:25:00,
2013-06-29 09:35:00,71.3,67.9,29.20,ESE,102,1.0,1.0,89,0.00,,,0.09,Wunderground v.1.15,2013-06-29 13:35:00,
2013-06-29 09:45:00,72.6,68.2,29.20,South,184,2.0,4.0,86,0.00,,,0.09,Wunderground v.1.15,2013-06-29 13:45:00,
2013-06-29 09:50:00,72.4,68.0,29.20,South,190,1.0,2.0,86,0.00,,,0.09,Wunderground v.1.15,2013-06-29 13:50:00,
2013-06-29 09:55:00,71.8,66.7,29.20,SE,130,2.0,2.0,84,0.00,,,0.09,Wunderground v.1.15,2013-06-29 13:55:00,
2013-06-29 10:00:00,71.5,67.4,29.20,East,90,2.0,3.0,87,0.00,,,0.09,Wunderground v.1.15,2013-06-29 14:00:00,
2013-06-29 10:10:00,71.9,67.8,29.20,ESE,103,2.0,2.0,87,0.00,,,0.09,Wunderground v.1.15,2013-06-29 14:10:00,
2013-06-29 10:20:00,71.2,67.1,29.20,East,93,1.0,1.0,87,0.00,,,0.09,Wunderground v.1.15,2013-06-29 14:20:00,
2013-06-29 10:30:00,71.3,67.2,29.20,SSW,192,2.0,4.0,87,0.00,,,0.09,Wunderground v.1.15,2013-06-29 14:30:00,
2013-06-29 10:40:00,71.8,67.7,29.20,SE,135,2.0,2.0,87,0.00,,,0.09,Wunderground v.1.15,2013-06-29 14:40:00,
2013-06-29 10:45:00,72.5,68.1,29.20,South,179,1.0,2.0,86,0.00,,,0.09,Wunderground v.1.15,2013-06-29 14:45:00,
2013-06-29 10:50:00,72.7,67.9,29.20,SE,128,2.0,2.0,85,0.00,,,0.09,Wunderground v.1.15,2013-06-29 14:50:00,
2013-06-29 11:00:00,73.1,69.0,29.20,SE,129,1.0,1.0,87,0.00,,,0.09,Wunderground v.1.15,2013-06-29 15:00:00,
2013-06-29 11:05:00,74.0,69.9,29.20,SE,134,1.0,2.0,87,0.00,,,0.09,Wunderground v.1.15,2013-06-29 15:05:00,
2013-06-29 11:10:00,74.3,69.5,29.20,SE,135,1.0,1.0,85,0.00,,,0.09,Wunderground v.1.15,2013-06-29 15:10:00,
2013-06-29 11:15:00,74.5,69.3,29.20,SSE,166,1.0,1.0,84,0.00,,,0.09,Wunderground v.1.15,2013-06-29 15:15:00,
2013-06-29 11:20:00,74.8,69.3,29.20,East,98,1.0,1.0,83,0.00,,,0.09,Wunderground v.1.15,2013-06-29 15:20:00,
2013-06-29 11:30:00,74.9,67.9,29.20,WSW,238,2.0,3.0,79,0.00,,,0.09,Wunderground v.1.15,2013-06-29 15:30:00,
2013-06-29 11:40:00,73.5,68.7,29.19,East,97,3.0,3.0,85,0.00,,,0.09,Wunderground v.1.15,2013-06-29 15:40:00,
2013-06-29 11:45:00,73.8,68.3,29.19,SSW,202,2.0,5.0,83,0.00,,,0.09,Wunderground v.1.15,2013-06-29 15:45:00,
2013-06-29 11:50:00,74.4,69.2,29.19,SSE,150,2.0,2.0,84,0.00,,,0.09,Wunderground v.1.15,2013-06-29 15:50:00,
2013-06-29 12:00:00,75.7,69.8,29.19,SE,128,3.0,3.0,82,0.00,,,0.09,Wunderground v.1.15,2013-06-29 16:00:00,
2013-06-29 12:05:00,76.3,69.3,29.19,South,187,2.0,13.0,79,0.00,,,0.09,Wunderground v.1.15,2013-06-29 16:05:00,
2013-06-29 12:10:00,75.8,69.2,29.19,SSW,212,4.0,4.0,80,0.00,,,0.09,Wunderground v.1.15,2013-06-29 16:10:00,
2013-06-29 12:20:00,75.2,68.2,29.19,SE,137,3.0,3.0,79,0.00,,,0.09,Wunderground v.1.15,2013-06-29 16:20:00,
2013-06-29 12:30:00,76.1,69.8,29.19,South,188,3.0,4.0,81,0.00,,,0.09,Wunderground v.1.15,2013-06-29 16:30:00,
2013-06-29 12:40:00,76.0,68.6,29.19,ESE,105,3.0,3.0,78,0.00,,,0.09,Wunderground v.1.15,2013-06-29 16:40:00,
2013-06-29 12:50:00,74.5,67.6,29.18,South,189,2.0,5.0,79,0.00,,,0.09,Wunderground v.1.15,2013-06-29 16:50:00,
2013-06-29 13:00:00,72.3,67.2,29.18,South,181,2.0,2.0,84,0.24,,,0.13,Wunderground v.1.15,2013-06-29 17:00:00,
2013-06-29 13:10:00,71.3,67.6,29.18,SW,223,1.0,4.0,88,0.05,,,0.13,Wunderground v.1.15,2013-06-29 17:10:00,
2013-06-29 13:15:00,71.0,67.3,29.18,South,187,2.0,4.0,88,0.00,,,0.13,Wunderground v.1.15,2013-06-29 17:15:00,
2013-06-29 13:20:00,70.9,67.2,29.18,SSW,213,3.0,6.0,88,0.00,,,0.13,Wunderground v.1.15,2013-06-29 17:20:00,
2013-06-29 13:25:00,71.1,67.4,29.18,SW,219,4.0,6.0,88,0.00,,,0.13,Wunderground v.1.15,2013-06-29 17:25:00,
2013-06-29 13:30:00,71.0,66.6,29.18,South,187,4.0,8.0,86,0.00,,,0.13,Wunderground v.1.15,2013-06-29 17:30:00,
2013-06-29 13:40:00,70.8,66.4,29.18,SSE,163,7.0,7.0,86,0.00,,,0.13,Wunderground v.1.15,2013-06-29 17:40:00,
2013-06-29 13:45:00,70.7,66.3,29.18,SSW,206,7.0,8.0,86,0.00,,,0.13,Wunderground v.1.15,2013-06-29 17:45:00,
2013-06-29 13:50:00,70.2,65.1,29.18,SE,146,7.0,7.0,84,0.00,,,0.13,Wunderground v.1.15,2013-06-29 17:50:00,
2013-06-29 13:55:00,69.8,64.7,29.18,SW,218,6.0,7.0,84,0.00,,,0.13,Wunderground v.1.15,2013-06-29 17:55:00,
2013-06-29 14:00:00,70.0,65.3,29.18,South,187,5.0,5.0,85,0.00,,,0.13,Wunderground v.1.15,2013-06-29 18:00:00,
2013-06-29 14:10:00,71.8,65.3,29.18,SSW,208,4.0,4.0,80,0.00,,,0.13,Wunderground v.1.15,2013-06-29 18:10:00,
2013-06-29 14:20:00,73.3,64.9,29.18,East,82,5.0,5.0,75,0.00,,,0.13,Wunderground v.1.15,2013-06-29 18:20:00,
2013-06-29 14:25:00,73.1,65.5,29.18,SSW,204,5.0,5.0,77,0.00,,,0.13,Wunderground v.1.15,2013-06-29 18:25:00,
2013-06-29 14:30:00,73.6,66.7,29.18,SE,144,3.0,5.0,79,0.00,,,0.13,Wunderground v.1.15,2013-06-29 18:30:00,
2013-06-29 14:35:00,74.8,67.5,29.18,South,172,4.0,5.0,78,0.00,,,0.13,Wunderground v.1.15,2013-06-29 18:35:00,
2013-06-29 14:40:00,75.7,67.6,29.18,South,179,5.0,8.0,76,0.00,,,0.13,Wunderground v.1.15,2013-06-29 18:40:00,
2013-06-29 14:50:00,76.0,67.1,29.18,South,182,4.0,4.0,74,0.00,,,0.13,Wunderground v.1.15,2013-06-29 18:50:00,
2013-06-29 14:55:00,75.1,66.6,29.17,SSW,198,3.0,7.0,75,0.00,,,0.13,Wunderground v.1.15,2013-06-29 18:55:00,
2013-06-29 15:00:00,73.7,66.8,29.18,SSE,164,4.0,4.0,79,0.00,,,0.14,Wunderground v.1.15,2013-06-29 19:00:00,
2013-06-29 15:10:00,72.6,68.5,29.18,SSW,204,5.0,5.0,87,0.07,,,0.16,Wunderground v.1.15,2013-06-29 19:10:00,
2013-06-29 15:20:00,73.4,66.1,29.19,South,170,6.0,6.0,78,0.00,,,0.16,Wunderground v.1.15,2013-06-29 19:20:00,
2013-06-29 15:25:00,72.7,64.7,29.19,South,191,5.0,10.0,76,0.00,,,0.16,Wunderground v.1.15,2013-06-29 19:25:00,
2013-06-29 15:30:00,71.6,64.4,29.19,South,175,7.0,12.0,78,0.00,,,0.16,Wunderground v.1.15,2013-06-29 19:30:00,
2013-06-29 15:35:00,70.7,63.9,29.20,SSW,210,8.0,12.0,79,0.00,,,0.16,Wunderground v.1.15,2013-06-29 19:35:00,
2013-06-29 15:40:00,70.4,64.3,29.20,SSW,201,5.0,6.0,81,0.00,,,0.16,Wunderground v.1.15,2013-06-29 19:40:00,
2013-06-29 15:50:00,70.4,63.9,29.20,SSE,163,5.0,9.0,80,0.00,,,0.16,Wunderground v.1.15,2013-06-29 19:50:00,
2013-06-29 16:00:00,70.1,63.6,29.20,SSW,197,4.0,4.0,80,0.00,,,0.16,Wunderground v.1.15,2013-06-29 20:00:00,
2013-06-29 16:05:00,70.3,65.2,29.20,SW,234,3.0,4.0,84,0.00,,,0.16,Wunderground v.1.15,2013-06-29 20:05:00,
2013-06-29 16:10:00,70.6,64.1,29.20,SW,226,2.0,5.0,80,0.00,,,0.16,Wunderground v.1.15,2013-06-29 20:10:00,
2013-06-29 16:20:00,70.8,64.0,29.20,SSW,194,3.0,4.0,79,0.00,,,0.16,Wunderground v.1.15,2013-06-29 20:20:00,
2013-06-29 16:25:00,70.8,64.0,29.20,SSE,164,3.0,4.0,79,0.00,,,0.16,Wunderground v.1.15,2013-06-29 20:25:00,
2013-06-29 16:30:00,70.8,64.0,29.21,SSW,195,2.0,2.0,79,0.00,,,0.16,Wunderground v.1.15,2013-06-29 20:30:00,
2013-06-29 16:40:00,71.3,66.6,29.21,South,183,0.0,0.0,85,0.00,,,0.16,Wunderground v.1.15,2013-06-29 20:40:00,
2013-06-29 16:45:00,71.2,65.8,29.21,South,182,0.0,1.0,83,0.00,,,0.16,Wunderground v.1.15,2013-06-29 20:45:00,
2013-06-29 16:50:00,70.8,65.7,29.21,South,181,1.0,1.0,84,0.72,,,0.19,Wunderground v.1.15,2013-06-29 20:50:00,
2013-06-29 16:55:00,70.8,66.7,29.22,South,181,1.0,1.0,87,0.26,,,0.21,Wunderground v.1.15,2013-06-29 20:55:00,
2013-06-29 17:00:00,71.0,66.6,29.21,North,349,0.0,0.0,86,0.08,,,0.21,Wunderground v.1.15,2013-06-29 21:00:00,
2013-06-29 17:10:00,72.1,68.3,29.22,North,355,0.0,0.0,88,0.00,,,0.21,Wunderground v.1.15,2013-06-29 21:10:00,
2013-06-29 17:20:00,72.4,68.0,29.22,East,96,1.0,1.0,86,0.00,,,0.21,Wunderground v.1.15,2013-06-29 21:20:00,
2013-06-29 17:25:00,72.6,68.2,29.21,ESE,113,1.0,2.0,86,0.00,,,0.21,Wunderground v.1.15,2013-06-29 21:25:00,
2013-06-29 17:30:00,72.2,68.1,29.21,SSE,165,1.0,2.0,87,0.00,,,0.21,Wunderground v.1.15,2013-06-29 21:30:00,
2013-06-29 17:40:00,72.4,69.0,29.21,SSE,165,1.0,1.0,89,0.00,,,0.21,Wunderground v.1.15,2013-06-29 21:40:00,
2013-06-29 17:45:00,72.2,68.1,29.21,South,175,1.0,2.0,87,0.00,,,0.21,Wunderground v.1.15,2013-06-29 21:45:00,
2013-06-29 17:50:00,72.3,68.5,29.21,South,175,1.0,3.0,88,0.00,,,0.21,Wunderground v.1.15,2013-06-29 21:50:00,
2013-06-29 17:55:00,72.1,68.7,29.21,South,175,2.0,3.0,89,0.00,,,0.21,Wunderground v.1.15,2013-06-29 21:55:00,
2013-06-29 18:00:00,71.9,68.8,29.21,NW,308,1.0,1.0,90,0.00,,,0.21,Wunderground v.1.15,2013-06-29 22:00:00,
2013-06-29 18:05:00,71.8,68.1,29.22,NNE,13,2.0,2.0,88,0.00,,,0.21,Wunderground v.1.15,2013-06-29 22:05:00,
2013-06-29 18:15:00,71.9,66.1,29.22,NW,319,2.0,2.0,82,0.00,,,0.21,Wunderground v.1.15,2013-06-29 22:15:00,
2013-06-29 18:20:00,71.7,65.2,29.22,NNW,338,2.0,2.0,80,0.00,,,0.21,Wunderground v.1.15,2013-06-29 22:20:00,
2013-06-29 18:25:00,71.5,65.0,29.23,WSW,256,3.0,5.0,80,0.00,,,0.21,Wunderground v.1.15,2013-06-29 22:25:00,
2013-06-29 18:35:00,70.8,64.3,29.24,WSW,252,4.0,8.0,80,0.00,,,0.21,Wunderground v.1.15,2013-06-29 22:35:00,
2013-06-29 18:40:00,70.5,64.0,29.24,WNW,286,5.0,9.0,80,0.00,,,0.21,Wunderground v.1.15,2013-06-29 22:40:00,
2013-06-29 18:50:00,69.7,64.0,29.24,WNW,291,7.0,7.0,82,0.00,,,0.21,Wunderground v.1.15,2013-06-29 22:50:00,
2013-06-29 19:00:00,69.4,64.4,29.24,NW,315,5.0,6.0,84,0.00,,,0.21,Wunderground v.1.15,2013-06-29 23:00:00,
2013-06-29 19:05:00,69.4,64.4,29.24,WNW,298,4.0,6.0,84,0.00,,,0.21,Wunderground v.1.15,2013-06-29 23:05:00,
2013-06-29 19:10:00,69.8,64.4,29.24,WNW,298,3.0,3.0,83,0.00,,,0.21,Wunderground v.1.15,2013-06-29 23:10:00,
2013-06-29 19:20:00,70.9,64.8,29.24,West,277,3.0,3.0,81,0.00,,,0.21,Wunderground v.1.15,2013-06-29 23:20:00,
2013-06-29 19:25:00,71.1,64.6,29.25,West,269,3.0,3.0,80,0.00,,,0.21,Wunderground v.1.15,2013-06-29 23:25:00,
2013-06-29 19:30:00,71.2,64.0,29.25,WSW,255,4.0,4.0,78,0.00,,,0.21,Wunderground v.1.15,2013-06-29 23:30:00,
2013-06-29 19:35:00,71.1,64.3,29.24,West,277,4.0,4.0,79,0.00,,,0.21,Wunderground v.1.15,2013-06-29 23:35:00,
2013-06-29 19:45:00,70.9,64.1,29.25,West,259,3.0,3.0,79,0.00,,,0.21,Wunderground v.1.15,2013-06-29 23:45:00,
2013-06-29 19:55:00,70.2,64.4,29.25,South,190,1.0,2.0,82,0.00,,,0.21,Wunderground v.1.15,2013-06-29 23:55:00,
2013-06-29 20:00:00,69.7,64.0,29.25,South,190,1.0,1.0,82,0.00,,,0.21,Wunderground v.1.15,2013-06-30 00:00:00,
2013-06-29 20:05:00,69.3,63.9,29.26,West,261,0.0,1.0,83,0.00,,,0.21,Wunderground v.1.15,2013-06-30 00:05:00,
2013-06-29 20:10:00,69.0,64.0,29.26,West,261,0.0,0.0,84,0.00,,,0.21,Wunderground v.1.15,2013-06-30 00:10:00,
2013-06-29 20:20:00,68.0,64.0,29.26,SSW,203,1.0,1.0,87,0.00,,,0.21,Wunderground v.1.15,2013-06-30 00:20:00,
2013-06-29 20:30:00,67.3,63.6,29.27,SSW,203,0.0,0.0,88,0.00,,,0.21,Wunderground v.1.15,2013-06-30 00:30:00,
2013-06-29 20:40:00,66.6,63.3,29.27,SSW,203,0.0,0.0,89,0.00,,,0.21,Wunderground v.1.15,2013-06-30 00:40:00,
2013-06-29 20:45:00,66.3,63.0,29.27,SW,223,0.0,0.0,89,0.00,,,0.21,Wunderground v.1.15,2013-06-30 00:45:00,
2013-06-29 20:55:00,66.0,63.0,29.27,South,188,0.0,0.0,90,0.00,,,0.21,Wunderground v.1.15,2013-06-30 00:55:00,
2013-06-29 21:05:00,65.5,63.1,29.28,South,188,0.0,0.0,92,0.00,,,0.21,Wunderground v.1.15,2013-06-30 01:05:00,
2013-06-29 21:10:00,65.2,63.1,29.28,South,188,0.0,0.0,93,0.00,,,0.21,Wunderground v.1.15,2013-06-30 01:10:00,
2013-06-29 21:15:00,65.0,62.9,29.29,South,188,0.0,0.0,93,0.00,,,0.21,Wunderground v.1.15,2013-06-30 01:15:00,
2013-06-29 21:20:00,64.9,63.1,29.29,South,188,0.0,0.0,94,0.00,,,0.21,Wunderground v.1.15,2013-06-30 01:20:00,
2013-06-29 21:25:00,64.8,63.0,29.30,NNW,333,0.0,0.0,94,0.00,,,0.21,Wunderground v.1.15,2013-06-30 01:25:00,
2013-06-29 21:30:00,64.8,63.0,29.30,NNE,19,1.0,5.0,94,0.00,,,0.21,Wunderground v.1.15,2013-06-30 01:30:00,
2013-06-29 21:35:00,64.3,62.2,29.31,North,9,2.0,5.0,93,0.00,,,0.21,Wunderground v.1.15,2013-06-30 01:35:00,
2013-06-29 21:40:00,64.0,61.9,29.31,NNE,17,2.0,3.0,93,0.00,,,0.21,Wunderground v.1.15,2013-06-30 01:40:00,
2013-06-29 21:50:00,63.9,62.1,29.31,NNE,24,3.0,3.0,94,0.00,,,0.21,Wunderground v.1.15,2013-06-30 01:50:00,
2013-06-29 21:55:00,63.9,62.1,29.32,NE,39,3.0,3.0,94,0.00,,,0.21,Wunderground v.1.15,2013-06-30 01:55:00,
2013-06-29 22:00:00,64.0,62.2,29.32,NE,38,2.0,2.0,94,0.00,,,0.21,Wunderground v.1.15,2013-06-30 02:00:00,
2013-06-29 22:10:00,63.9,62.1,29.32,NE,38,1.0,1.0,94,0.00,,,0.21,Wunderground v.1.15,2013-06-30 02:10:00,
2013-06-29 22:15:00,63.9,61.8,29.32,NE,36,1.0,1.0,93,0.00,,,0.21,Wunderground v.1.15,2013-06-30 02:15:00,
2013-06-29 22:20:00,63.9,61.8,29.32,NE,36,1.0,1.0,93,0.00,,,0.21,Wunderground v.1.15,2013-06-30 02:20:00,
2013-06-29 22:30:00,64.0,62.2,29.32,NE,36,1.0,1.0,94,0.00,,,0.21,Wunderground v.1.15,2013-06-30 02:30:00,
2013-06-29 22:35:00,64.2,62.1,29.32,WNW,298,1.0,2.0,93,0.00,,,0.21,Wunderground v.1.15,2013-06-30 02:35:00,
2013-06-29 22:40:00,64.5,62.4,29.32,WNW,290,1.0,1.0,93,0.00,,,0.21,Wunderground v.1.15,2013-06-30 02:40:00,
2013-06-29 22:50:00,64.2,62.1,29.32,SSW,210,0.0,0.0,93,0.00,,,0.21,Wunderground v.1.15,2013-06-30 02:50:00,
2013-06-29 22:55:00,64.0,61.9,29.32,SSW,210,0.0,0.0,93,0.00,,,0.21,Wunderground v.1.15,2013-06-30 02:55:00,
2013-06-29 23:00:00,63.8,61.7,29.32,SSW,210,0.0,0.0,93,0.00,,,0.21,Wunderground v.1.15,2013-06-30 03:00:00,
2013-06-29 23:05:00,63.6,61.5,29.33,SSW,210,0.0,0.0,93,0.00,,,0.21,Wunderground v.1.15,2013-06-30 03:05:00,
2013-06-29 23:15:00,63.4,61.6,29.33,SSW,210,0.0,0.0,94,0.00,,,0.21,Wunderground v.1.15,2013-06-30 03:15:00,
2013-06-29 23:25:00,63.2,61.7,29.33,SSW,210,0.0,0.0,95,0.00,,,0.21,Wunderground v.1.15,2013-06-30 03:25:00,
2013-06-29 23:30:00,63.3,61.8,29.33,SSW,210,0.0,0.0,95,0.00,,,0.21,Wunderground v.1.15,2013-06-30 03:30:00,
2013-06-29 23:40:00,63.1,61.6,29.33,SSW,210,0.0,0.0,95,0.00,,,0.21,Wunderground v.1.15,2013-06-30 03:40:00,
2013-06-29 23:45:00,63.1,61.6,29.33,SSW,210,0.0,0.0,95,0.00,,,0.21,Wunderground v.1.15,2013-06-30 03:45:00,
2013-06-29 23:50:00,63.1,61.6,29.34,SSW,210,0.0,2.0,95,0.00,,,0.21,Wunderground v.1.15,2013-06-30 03:50:00,